Flag for Maldives Weather past 2 weeks in Male, Maldives

Now
88 °F

Partly sunny.


Feels Like: 100 °F
Forecast: 82 / 89 °F
Wind: 6 mph from Northeast

Location: Male Airport

Current Time: Apr 1, 2015 at 6:22:24 PM

Latest Report: Apr 1, 2015 at 5:00 PM


Visibility: N/A

Pressure: 29.80 "Hg

Humidity: 70%

Dew point: 77 °F

Location of MaleLocation

Historic Weather in Male — Graph

°F

Male temperature yesterday

Maximum temperature yesterday: 90 °F (at 11:00 AM)
Minimum temperature yesterday: 79 °F (at 4:00 AM)
Average temperature yesterday: 86 °F

Past Weeks' High & Low Weather Summary

 TemperatureHumidityPressure
High90 °F (Mar 19, 1:00 PM)100% (Mar 23, 6:00 AM)29.98 "Hg (Mar 23, 6:00 AM)
Low79 °F (Mar 31, 4:00 AM)59% (Mar 20, 1:00 PM)29.77 "Hg (Mar 24, 4:00 PM)
Average86 °F73%29.86 "Hg
* Reported Mar 17 5:00 PM — Apr 1 5:00 PM, Male, Weather by CustomWeather, © 2015

Note: Actual official high and low records may vary slightly from our data, if they occured in-between our weather recording intervals... More about our weather records

Advertising

Male weather history for previous 24 hours

 ConditionsComfort  
Time TempWeatherWind HumidityBarometerVisibility
5:00 PM
Wed, Apr 1
88 °FPartly sunny.6 mph70%29.80 "HgN/A
4:00 PM90 °FPartly sunny.7 mph67%29.77 "HgN/A
3:00 PM90 °FBroken clouds.6 mph71%29.77 "HgN/A
2:00 PM90 °FBroken clouds.6 mph71%29.80 "HgN/A
1:00 PM90 °FPartly sunny.9 mph71%29.83 "HgN/A
12:00 PM90 °FBroken clouds.7 mph71%29.86 "HgN/A
11:00 AM90 °FPartly sunny.5 mph71%29.89 "HgN/A
10:00 AM90 °FScattered clouds.5 mph71%29.89 "HgN/A
9:00 AM88 °FScattered clouds.3 mph75%29.89 "HgN/A
8:00 AM86 °FScattered clouds.2 mph79%29.86 "HgN/A
7:00 AM84 °FPartly sunny.No wind79%29.86 "HgN/A
6:00 AM84 °FPassing clouds.1 mph79%29.83 "HgN/A
5:00 AM82 °FPassing clouds.2 mph84%29.80 "HgN/A
4:00 AM82 °FPassing clouds.No wind89%29.80 "HgN/A
3:00 AM82 °FPassing clouds.No wind89%29.80 "HgN/A
1:00 AM84 °FSprinkles. Passing clouds.18 mph79%29.86 "Hg6 mi
12:00 AM84 °FPassing clouds.5 mph79%29.89 "HgN/A
11:00 PM
Tue, Mar 31
86 °FPassing clouds.6 mph75%29.89 "HgN/A
10:00 PM86 °FPassing clouds.7 mph94%29.89 "HgN/A
9:00 PM86 °FPassing clouds.3 mph79%29.89 "HgN/A
8:00 PM84 °FPassing clouds.3 mph84%29.86 "HgN/A
7:00 PM86 °FPassing clouds.5 mph79%29.83 "HgN/A
6:00 PM86 °FScattered clouds.8 mph79%29.80 "HgN/A
Weather by CustomWeather, © 2015

See weather overviewHow to use our weather pages